Regional Weather Roundup
Issued by NWS Grand Forks, ND

Home | Current Version | Previous Version | Graphics & Text | Print | Product List | Glossary On
Versions: 1 2 3 4 5 6 7 8 9 10 11 12 13 14 15 16 17 18 19 20 21 22 23 24 25 26 27 28 29 30 31 32 33 34 35 36 37 38 39 40 41 42 43 44 45 46 47 48 49 50
000
ASUS43 KFGF 280631
RWRFGF
PRAIRIE TO PINES  WEATHER ROUNDUP
NATIONAL WEATHER SERVICE EASTERN NORTH DAKOTA/GRAND FORKS ND
100 AM CDT FRI AUG 28 2015

 **SATELLITE DATA USED TO AUGMENT SKY COVER AT AUTOMATED STATIONS**
 *****  WEATHER ACROSS EASTERN NORTH DAKOTA  *****

CITY           SKY/WX    TMP DP  RH WIND       PRES   REMARKS
GRAND FORKS    FAIR      65  64  97 S7        29.86S
6HR MIN TEMP:  63; 6HR MAX TEMP:  75;

GRAND FRKS AFB FAIR      65  64  96 SW5       29.87S
GRAND FRKS NWS   N/A     64 N/A N/A S3          N/A
DEVILS LAKE    FAIR      70  61  73 S10       29.85F
6HR MIN TEMP:  68; 6HR MAX TEMP:  75;

FARGO          FAIR      69  65  86 S9        29.89S
WAHPETON ARPT  FAIR      64  61  88 S6        29.91F
$$

 ***** WEATHER ACROSS CENTRAL AND WESTERN NORTH DAKOTA  *****

CITY           SKY/WX    TMP DP  RH WIND       PRES   REMARKS
BISMARCK       PTCLDY    68  61  78 NW3       29.92R
6HR MIN TEMP:  65; 6HR MAX TEMP:  82;

MINOT          FAIR      72  60  66 S13       29.83F
6HR MIN TEMP:  68; 6HR MAX TEMP:  81;

JAMESTOWN      FAIR      66  61  84 SW8       29.89S
6HR MIN TEMP:  65; 6HR MAX TEMP:  77;

MINOT AFB      FAIR      63  63  99 S7        29.82F
GARRISON         N/A     64  60  87 SW6       29.89S
WILLISTON      CLEAR     67  62  84 S5        29.86S
6HR MIN TEMP:  66; 6HR MAX TEMP:  85;

DICKINSON      PTCLDY    63  57  81 S13       29.91F
6HR MIN TEMP:  62; 6HR MAX TEMP:  84;

HETTINGER      MOCLDY    64  57  78 S5        29.97F
6HR MIN TEMP:  63; 6HR MAX TEMP:  81;

$$

 *****  OTHER AIRPORT OBSERVATIONS IN OUR AREA  *****

CITY           SKY/WX    TMP DP  RH WIND       PRES   REMARKS
WALHALLA       FAIR      64  64 100 MISG      29.84S
GRAFTON AIRPOR FAIR      63  63 100 S6        29.86S
VALLEY CITY AR FAIR      66  66 100 SW10      29.90S
CANDO          FAIR      64  63  94 S6        29.86S
CAVALIER APRT  FAIR      63  63 100 S7        29.83F
GWINNER          N/A     63  63 100 S5        29.91S
SHEYENNE NWR     N/A     62  62  99 SE3       29.95S
ROLLA          CLOUDY    64  64 100 SW8       29.85F
 ***** THE ABOVE OBSERVATIONS ARE NON NWS ARE NOT QUALITY
       CONTROLLED AND MAY MIS-REPORT RAIN FOR SNOW...
$$

  *****  WEATHER ACROSS NORTHERN MINNESOTA  *****

CITY           SKY/WX    TMP DP  RH WIND       PRES   REMARKS
FLAG ISLAND    FAIR      66  63  88 CALM      29.86F FOG
WARROAD        FAIR      61  57  88 S3        29.87F
ROSEAU         FAIR      61  54  77 S5        29.87F HAZE
HALLOCK        FAIR      61  57  88 S8        29.84F
THF RVR FALLS  FAIR     N/A N/A N/A S8        29.88F
BAUDETTE       FAIR      61  59  93 CALM      29.90S
6HR MIN TEMP:  61; 6HR MAX TEMP:  73;

WASKISH        CLOUDY    64  63  94 S5        29.91S
CROOKSTON      FAIR      66  64  94 S7        29.88F
STEPHEN NDAWN    N/A     66  64  94 S7          N/A
GREENBUSH NDAW   N/A     61  59  94 S3          N/A
$$
  *****  WEATHER ACROSS CENTRAL AND WEST MINNESOTA  *****

CITY           SKY/WX    TMP DP  RH WIND       PRES   REMARKS
FOSSTON        FAIR      61  61 100 S3        29.92S
BEMIDJI        FAIR      63  62  97 CALM      29.93S
PARK RAPIDS    FAIR      63  61  93 SE6       29.94S
6HR MIN TEMP:  64; 6HR MAX TEMP:  72;

ELBOW LAKE     FAIR      62  62  98 S8        29.95R
6HR MIN TEMP:  63; 6HR MAX TEMP:  71;

WADENA         CLOUDY    63  63 100 S3        29.94F FOG
DETROIT LAKES  FAIR      63  63 100 S5        29.94S FOG
MOORHEAD       FAIR      66  64  94 S10       29.90F
FERGUS FALLS   FAIR      64  64 100 S6        29.92S
MORRIS MN      FAIR      63  63 100 SE6       29.95R FOG
STAPLES        CLOUDY    63  61  94 S3        29.95F
$$
  *****  WEATHER ELSEWHERE ACROSS MINNESOTA  *****

CITY           SKY/WX    TMP DP  RH WIND       PRES   REMARKS
DULUTH         CLOUDY    61  54  77 S6        29.98F
6HR MIN TEMP:  57; 6HR MAX TEMP:  63;

INTRNTL FALLS  FAIR      58  57  97 CALM      29.91F FOG
6HR MIN TEMP:  57; 6HR MAX TEMP:  72;

ELY            FAIR      61  55  82 CALM      29.97S
CLOQUET        CLOUDY    57  52  82 CALM      29.98F
WHEATON        FAIR      59  59 100 SE7       29.95R
BRAINERD       CLOUDY    65  62  90 S7        29.96F
6HR MIN TEMP:  65; 6HR MAX TEMP:  71;

HIBBING        FAIR      56  56 100 CALM      29.96F FOG
6HR MIN TEMP:  58; 6HR MAX TEMP:  70;

ALEXANDRIA     FOG       63  63 100 S12       29.99R VSB 1
6HR MIN TEMP:  63; 6HR MAX TEMP:  73;

SAINT CLOUD    FAIR      59  58  96 S6        29.99R
6HR MIN TEMP:  59; 6HR MAX TEMP:  71;

MINNEAPOLIS    CLOUDY    66  59  78 S7        30.01R
6HR MIN TEMP:  66; 6HR MAX TEMP:  73;

$$

  *****  WEATHER ACROSS SOUTH DAKOTA  *****

CITY           SKY/WX    TMP DP  RH WIND       PRES   REMARKS
SIOUX FALLS    LGT RAIN  65  63  93 SE12      29.94F
6HR MIN TEMP:  65; 6HR MAX TEMP:  74; 6HR PCP:  2.42;

BROOKINGS      CLOUDY    66  63  88 SE12      29.98S
WATERTOWN      FAIR      67  63  87 SE8       29.95S
6HR MIN TEMP:  67; 6HR MAX TEMP:  74; 6HR PCP: TRACE;

HURON          CLOUDY    67  64  90 SE5       29.92S
6HR MIN TEMP:  67; 6HR MAX TEMP:  75; 6HR PCP:  0.01;

SISSETON         N/A     64  64 100 S6        29.92R
ABERDEEN       PTCLDY    63  62  97 SE6       29.92S
6HR MIN TEMP:  63; 6HR MAX TEMP:  74;

MITCHELL       LGT RAIN  67  66  97 SE6       29.91S
PIERRE         CLOUDY    68  67  96 E3        29.91R
6HR MIN TEMP:  66; 6HR MAX TEMP:  70; 6HR PCP: TRACE;

MOBRIDGE       CLEAR     61  61 100 CALM      29.92S
RAPID CITY     CLEAR     60  58  92 SE3       30.01F
6HR MIN TEMP:  60; 6HR MAX TEMP:  75;

$$

  *****  SOME WEATHER IN NEARBY STATES *****

CITY           SKY/WX    TMP DP  RH WIND       PRES   REMARKS
GLASGOW MT     PTCLDY    68  56  65 W5        29.87F
6HR MIN TEMP:  68; 6HR MAX TEMP:  89;

GREAT FALLS MT CLOUDY    63  33  32 SW10      30.02R HAZE
6HR MIN TEMP:  61; 6HR MAX TEMP:  88;

CHEYENNE WY    LGT RAIN  59  52  77 W16       30.25R
6HR MIN TEMP:  59; 6HR MAX TEMP:  73;

SCOTTSBLUFF NE MOCLDY    62  56  80 N5        30.08S
6HR MIN TEMP:  61; 6HR MAX TEMP:  81;

OMAHA NE       LGT RAIN  68  67  96 E13       29.93F
6HR MIN TEMP:  69; 6HR MAX TEMP:  80; 6HR PCP:  0.07;

DES MOINES IA  MOCLDY    67  59  75 SE10      30.00F
6HR MIN TEMP:  67; 6HR MAX TEMP:  73;

DAVENPORT IA   FAIR      63  59  87 SE7       30.08F
6HR MIN TEMP:  60; 6HR MAX TEMP:  69;

CHICAGO IL     FAIR      59  55  87 SE3       30.13S
6HR MIN TEMP:  59; 6HR MAX TEMP:  69;

EAU CLAIRE WI  FAIR      64  59  83 S8        30.03R
6HR MIN TEMP:  62; 6HR MAX TEMP:  71;

LA CROSSE WI   FAIR      67  60  78 S8        30.05F
6HR MIN TEMP:  64; 6HR MAX TEMP:  74;

$$

  *****  SOME NATIONAL WEATHER *****

CITY           SKY/WX    TMP DP  RH WIND       PRES   REMARKS
LA GUARDIA NY  FAIR      70  54  56 N6        30.12S
6HR MIN TEMP:  70; 6HR MAX TEMP:  74;

RALEIGH NC     MOCLDY    65  60  84 CALM      30.13F
6HR MIN TEMP:  65; 6HR MAX TEMP:  76;

ATLANTA GA     FAIR      71  65  81 E8        30.06S
6HR MIN TEMP:  71; 6HR MAX TEMP:  79;

NEW ORLEANS LA FAIR      73  63  70 CALM      29.97F
6HR MIN TEMP:  72; 6HR MAX TEMP:  85;

OKLAHOMA CITY  MOCLDY    76  63  64 S10       29.97F
6HR MIN TEMP:  76; 6HR MAX TEMP:  88;

ALBUQUERQUE NM MOCLDY    70  54  56 S6        30.21S
6HR MIN TEMP:  70; 6HR MAX TEMP:  82;

SALT LAKE CITY PTCLDY    75  44  33 S10       30.16S
6HR MIN TEMP:  71; 6HR MAX TEMP:  87;

LOS ANGELES CA CLEAR     76  65  68 VRB3      29.91F



USA.gov is the U.S. government's official web portal to all federal, state and local government web resources and services.